Wind_Speed
17 18 21 23 27 31 33 37 40 43 46 46 47 45 44 43 44 45 45 46 46 48 50 53 57 59 60 62 63 62 63 63 57 56 57 53 51 44 54 65 60 55 49 45 56
19 20 23 27 31 34 37 41 44 48 48 49 49 48 48 49 50 51 50 50 50 52 52 54 56 60 65 66 68 69 69 64 61 60 61 56 56 56 53 55 64 65 59 49 55
22 24 27 30 34 38 42 45 49 51 51 51 51 51 52 53 55 51 52 54 56 58 58 57 58 58 61 66 69 70 75 70 67 68 67 66 65 63 62 55 55 65 65 53 57
24 26 31 34 37 41 46 50 52 53 53 53 54 54 53 52 54 52 54 56 57 57 57 57 57 55 55 59 68 70 73 74 75 76 75 73 72 66 67 57 56 56 66 62 64
26 29 34 37 40 45 49 53 53 54 55 57 57 57 55 54 57 47 52 52 48 43 41 41 42 47 49 52 58 68 70 75 75 79 80 77 75 70 68 64 63 59 64 70 68
29 32 36 39 41 46 51 55 56 56 57 58 59 59 59 54 55 50 45 39 37 33 35 36 35 38 38 40 47 53 65 72 77 80 78 82 82 75 67 69 68 64 62 70 70
31 33 37 41 45 49 54 57 58 58 59 60 61 60 57 52 50 44 39 36 30 31 32 33 32 33 35 37 38 40 47 59 72 80 81 80 88 76 69 71 69 67 64 65 72
34 36 39 43 47 51 56 58 59 60 61 63 62 60 52 48 45 35 32 27 29 28 31 32 31 30 32 33 35 40 46 50 54 64 78 79 88 77 77 74 71 70 68 62 64
37 39 41 44 49 54 58 60 60 60 63 63 61 55 50 39 33 30 22 23 25 32 30 33 33 32 26 30 33 32 31 33 37 38 42 67 85 81 76 78 73 71 70 64 62
39 39 42 46 51 56 60 61 63 60 60 61 54 44 41 28 26 19 21 20 23 29 35 31 31 26 25 29 29 21 21 22 27 31 37 53 83 75 78 77 77 74 72 66 63
40 41 45 49 53 57 60 63 66 70 68 61 48 34 29 28 18 16 19 25 28 28 29 30 28 22 21 23 25 26 27 31 34 32 29 41 43 61 78 77 78 75 73 69 65
42 43 45 49 53 57 61 63 64 65 58 52 39 30 24 18 13 17 23 23 24 27 29 30 26 19 24 30 30 29 29 30 30 31 34 38 42 41 48 77 78 78 76 68 64
43 43 46 49 54 57 61 62 64 64 58 42 33 25 22 14 10 15 19 20 19 21 25 26 22 20 29 27 31 30 30 28 31 27 30 35 39 45 47 67 77 78 79 70 66
44 43 46 51 54 59 62 64 64 61 54 49 34 21 21 11 15 13 15 15 19 22 24 18 18 19 25 30 31 32 26 28 29 28 32 30 37 40 55 55 80 82 81 71 68
46 45 47 50 53 57 61 63 61 55 47 42 35 23 20 18 20 16 13 18 22 19 23 11 16 17 21 23 27 25 24 26 28 29 30 31 36 32 43 52 67 83 79 73 69
51 46 47 48 51 56 60 61 55 55 36 33 36 25 21 18 21 23 25 24 23 21 21 18 17 18 19 21 24 23 24 24 23 25 33 29 33 34 41 49 73 82 76 70 65
53 47 47 48 51 55 59 59 60 39 28 30 27 24 21 19 23 26 26 27 27 24 21 23 19 17 18 20 22 23 19 21 22 24 23 20 26 28 27 40 59 74 73 70 62
52 47 45 46 51 55 59 57 52 39 27 30 29 24 21 21 19 21 21 24 24 26 24 22 16 20 17 18 17 20 20 20 20 17 21 18 23 19 36 38 37 45 70 70 62
54 46 45 47 49 53 56 58 49 38 30 25 28 24 21 19 22 21 21 23 23 26 25 24 19 19 20 21 18 16 19 14 23 20 22 18 22 16 39 40 41 39 42 61 61
48 42 41 43 48 50 56 53 48 39 37 37 28 25 21 17 17 21 22 24 28 27 27 28 31 28 23 21 18 15 17 20 21 16 18 12 18 15 42 37 39 38 53 56 62
45 41 39 43 45 52 53 52 45 40 38 42 27 22 21 20 17 20 26 28 29 29 26 29 33 30 26 17 16 20 20 19 20 17 14 16 13 24 23 40 36 40 61 68 66
42 37 39 42 46 48 49 50 44 38 38 39 27 18 20 20 16 24 27 31 31 30 29 31 31 24 19 15 14 15 18 21 19 17 11 17 22 28 30 32 46 50 63 66 65
41 35 34 41 41 46 50 51 45 32 35 34 30 26 25 25 23 25 28 29 30 30 29 27 25 24 11 6 12 13 13 16 18 18 18 20 9 29 35 21 48 49 56 62 60
39 36 40 42 44 48 49 48 42 30 31 27 32 30 24 22 29 32 30 31 24 22 18 21 15 16 15 14 14 17 15 15 17 18 11 13 19 24 44 37 40 35 42 57 58
39 37 39 42 43 45 45 46 43 33 27 29 21 27 28 27 24 26 24 21 22 15 21 22 23 23 20 17 21 23 18 19 17 15 23 16 19 11 52 41 52 44 41 53 63
40 38 41 43 44 44 47 47 44 32 27 29 29 20 20 23 28 25 27 21 17 18 18 22 18 17 16 10 11 10 14 16 17 21 23 23 21 10 54 51 55 50 41 55 71
46 43 43 43 46 46 44 45 43 36 29 30 30 19 19 22 24 25 24 22 21 20 20 20 16 14 13 10 7 1 8 8 11 15 18 20 23 10 53 48 52 63 44 65 62
Wind_Direction
338 335 333 334 333 330 329 328 326 323 321 319 318 316 311 306 301 297 291 285 277 272 266 261 257 251 247 245 247 245 244 248 245 246 244 238 237 240 231 228 228 227 227 226 238
343 339 337 337 334 331 331 329 326 326 326 324 322 318 313 308 304 299 291 286 280 274 267 262 256 251 250 245 244 244 242 244 243 243 245 241 235 237 235 230 224 227 227 224 235
343 341 337 336 332 331 331 330 330 330 328 325 322 317 313 309 301 296 292 287 280 274 269 265 262 258 251 249 246 245 240 238 237 236 238 237 234 233 236 230 227 227 227 221 236
339 336 333 333 332 332 332 332 333 332 329 325 321 318 313 306 297 297 287 280 276 274 273 270 266 259 255 250 248 246 242 238 236 235 234 233 234 231 233 226 231 226 226 218 229
337 334 333 334 332 331 333 335 334 333 330 326 322 317 310 304 295 296 285 280 279 279 279 276 273 270 264 256 250 248 243 240 239 237 234 233 233 232 230 229 229 226 223 219 224
330 331 331 333 333 333 334 336 335 334 330 325 320 317 312 303 302 290 286 283 285 279 275 272 269 268 268 262 258 251 246 241 239 238 235 235 232 229 229 230 227 227 223 221 221
338 334 332 333 333 334 335 336 335 334 329 324 321 318 312 302 295 291 288 285 275 271 271 273 273 271 270 265 263 262 260 246 240 237 238 236 233 227 226 230 229 228 227 221 222
338 335 331 332 334 335 336 337 336 333 329 325 323 320 309 302 297 296 290 281 273 275 276 279 280 278 277 269 274 274 258 253 243 245 239 238 231 226 229 228 227 225 227 224 225
335 334 334 336 337 336 338 336 335 333 330 328 324 319 309 305 299 296 286 282 286 277 275 280 277 279 269 269 270 271 268 253 251 252 256 242 228 229 228 227 226 225 225 224 224
335 335 335 336 337 337 337 336 335 335 332 329 326 319 313 312 300 291 290 297 291 290 289 289 291 272 259 269 263 258 257 249 254 257 259 244 230 236 227 226 225 221 224 221 222
338 337 336 336 337 338 338 336 336 336 336 337 331 326 311 314 304 289 293 307 302 293 292 291 292 266 264 259 258 257 258 251 247 256 266 233 241 239 227 223 222 221 224 219 219
337 337 337 337 338 339 339 339 339 338 342 338 335 325 330 326 304 294 300 301 295 297 299 296 294 272 261 258 260 259 261 262 260 259 256 253 244 228 235 222 220 220 219 217 217
337 336 337 338 338 339 340 341 341 342 342 342 338 332 334 323 300 295 296 297 295 305 309 301 302 257 259 266 268 270 269 271 267 265 254 255 254 231 224 223 218 219 217 214 213
337 334 335 336 337 340 342 343 345 345 344 350 343 333 333 311 313 304 304 307 311 317 314 313 284 276 260 262 267 269 278 272 267 259 259 252 262 245 222 222 217 214 214 211 213
338 334 335 337 339 343 345 346 348 346 359 351 338 321 326 326 322 318 314 319 321 321 316 317 295 276 268 266 268 278 269 269 271 265 259 258 247 236 228 221 216 215 210 208 212
341 334 337 336 338 341 347 347 350 350 356 355 358 342 331 321 315 317 321 324 325 320 312 316 296 286 280 267 270 275 274 278 282 266 264 260 243 244 218 222 215 214 208 207 212
340 335 337 339 343 344 347 350 350 359 340 344 353 354 344 327 320 317 318 320 323 325 318 319 308 283 276 276 271 270 273 281 272 278 291 266 246 240 206 213 215 214 207 207 210
337 335 336 340 342 344 347 345 356 346 339 335 340 343 337 323 311 308 314 315 321 320 318 310 310 291 284 279 268 273 274 274 277 283 285 260 252 255 183 189 207 206 204 207 207
335 335 337 340 344 344 348 355 351 346 339 332 329 334 340 325 311 309 310 319 321 317 316 314 307 300 276 279 273 272 273 275 270 278 269 270 269 237 189 176 201 205 198 204 202
333 336 337 341 345 347 349 351 351 346 340 332 315 317 327 332 314 307 314 318 320 317 311 312 308 308 313 271 270 262 262 266 271 282 275 264 247 235 197 189 186 196 190 189 200
334 335 338 343 346 347 351 353 352 344 346 346 327 313 322 332 332 319 321 320 317 316 313 314 310 313 310 290 252 258 265 263 265 262 287 270 219 203 210 195 188 188 192 194 195
333 335 340 342 345 350 351 353 354 345 347 354 1 344 337 333 341 327 322 320 318 314 306 303 301 309 307 281 253 253 252 252 260 253 265 258 270 192 191 195 196 187 191 192 192
335 332 331 342 346 347 349 351 355 348 349 348 350 348 350 340 334 328 322 324 321 313 309 308 314 318 313 295 286 261 250 245 244 244 247 265 255 180 167 172 188 182 190 190 195
333 335 337 341 342 345 347 349 353 348 355 344 341 338 333 337 340 335 333 324 319 324 324 321 318 317 312 253 230 237 245 240 234 243 233 257 254 196 173 164 176 184 188 189 179
334 335 338 341 342 342 345 347 352 351 347 351 336 331 331 331 330 329 333 339 338 341 334 320 324 322 308 288 255 262 251 238 235 226 226 200 242 220 173 160 165 171 184 188 175
332 335 337 337 340 340 344 348 349 347 340 343 346 328 330 327 334 343 344 345 343 336 337 343 330 332 337 312 295 276 257 242 236 217 227 216 226 215 172 160 164 169 173 184 175
333 329 332 335 339 340 343 345 346 346 339 338 343 333 337 339 345 345 346 346 340 335 338 337 329 341 350 334 321 322 226 244 217 209 212 210 221 231 174 154 170 181 173 181 183
Height
5839 5837 5835 5833 5830 5826 5822 5818 5813 5809 5804 5799 5794 5790 5785 5781 5778 5775 5773 5771 5769 5768 5768 5767 5768 5769 5770 5773 5774 5775 5777 5782 5792 5797 5803 5810 5814 5817 5819 5823 5832 5837 5843 5849 5842
5837 5834 5831 5828 5825 5820 5816 5812 5806 5800 5794 5789 5783 5778 5774 5770 5766 5761 5758 5756 5754 5752 5751 5750 5750 5751 5752 5754 5757 5757 5760 5771 5781 5784 5787 5796 5801 5802 5807 5813 5820 5825 5831 5840 5836
5834 5831 5827 5824 5820 5814 5810 5805 5799 5791 5785 5779 5773 5768 5763 5757 5751 5748 5744 5740 5737 5734 5733 5732 5732 5733 5735 5735 5738 5740 5743 5756 5763 5764 5768 5775 5782 5788 5793 5801 5811 5815 5822 5834 5829
5831 5827 5823 5819 5814 5809 5803 5796 5789 5782 5775 5769 5763 5756 5750 5744 5738 5734 5727 5722 5718 5715 5714 5712 5712 5713 5716 5718 5718 5718 5729 5738 5741 5745 5749 5757 5763 5774 5778 5794 5795 5802 5810 5822 5819
5827 5823 5819 5814 5809 5802 5795 5788 5781 5773 5765 5758 5750 5743 5737 5730 5719 5720 5709 5704 5701 5700 5698 5696 5696 5695 5698 5700 5699 5702 5712 5716 5720 5724 5733 5740 5748 5760 5765 5778 5782 5789 5797 5808 5812
5823 5819 5814 5808 5802 5796 5788 5780 5772 5764 5755 5747 5739 5730 5722 5713 5706 5700 5694 5691 5690 5689 5687 5686 5685 5683 5685 5685 5685 5688 5690 5696 5701 5706 5715 5723 5731 5741 5759 5764 5770 5777 5786 5795 5802
5819 5814 5808 5801 5795 5788 5780 5772 5764 5755 5745 5735 5726 5716 5707 5699 5690 5685 5682 5681 5679 5678 5678 5676 5676 5676 5676 5675 5676 5676 5676 5679 5683 5689 5695 5705 5705 5731 5747 5745 5758 5767 5775 5783 5789
5815 5809 5803 5796 5789 5781 5772 5764 5755 5746 5734 5722 5712 5702 5692 5684 5676 5674 5671 5671 5669 5670 5669 5668 5668 5668 5666 5666 5667 5665 5662 5664 5673 5674 5679 5682 5695 5723 5725 5731 5744 5754 5762 5773 5780
5810 5803 5796 5790 5782 5774 5765 5756 5747 5737 5723 5710 5698 5688 5677 5674 5669 5665 5664 5664 5663 5660 5662 5660 5659 5659 5658 5658 5658 5655 5652 5656 5662 5666 5665 5666 5689 5699 5708 5717 5729 5740 5750 5763 5771
5803 5797 5790 5783 5775 5767 5758 5748 5738 5729 5715 5703 5688 5677 5667 5663 5659 5659 5658 5658 5657 5656 5651 5652 5650 5649 5650 5650 5650 5653 5651 5653 5658 5661 5655 5658 5671 5673 5689 5701 5713 5726 5735 5750 5761
5797 5791 5784 5776 5769 5760 5751 5741 5728 5710 5699 5687 5675 5668 5662 5658 5655 5655 5654 5653 5650 5648 5646 5644 5642 5643 5643 5645 5645 5645 5645 5644 5643 5644 5643 5644 5650 5657 5670 5686 5697 5712 5724 5738 5750
5792 5786 5779 5771 5763 5754 5743 5731 5718 5706 5696 5682 5670 5662 5658 5654 5652 5651 5651 5650 5646 5642 5640 5637 5635 5635 5635 5634 5634 5635 5636 5635 5635 5636 5635 5634 5634 5645 5656 5670 5684 5699 5709 5725 5740
5787 5780 5773 5765 5756 5748 5736 5724 5710 5696 5685 5674 5665 5658 5655 5652 5651 5651 5648 5645 5642 5639 5635 5631 5631 5629 5628 5628 5627 5626 5626 5626 5625 5627 5626 5625 5623 5629 5642 5654 5668 5681 5698 5714 5727
5782 5775 5767 5759 5751 5739 5728 5715 5702 5689 5678 5666 5660 5657 5652 5650 5648 5646 5643 5642 5638 5634 5629 5626 5623 5621 5621 5620 5620 5618 5620 5617 5615 5617 5614 5620 5615 5621 5629 5640 5652 5669 5685 5707 5718
5777 5770 5762 5752 5744 5733 5723 5709 5697 5683 5676 5668 5657 5651 5650 5647 5643 5640 5639 5637 5633 5630 5625 5624 5618 5615 5614 5614 5613 5613 5612 5610 5608 5607 5607 5606 5606 5610 5621 5629 5639 5657 5679 5697 5709
5773 5765 5757 5748 5739 5729 5717 5704 5693 5679 5673 5666 5657 5650 5648 5644 5641 5637 5634 5632 5629 5625 5621 5618 5614 5611 5609 5608 5606 5606 5605 5603 5601 5601 5594 5594 5598 5600 5608 5621 5636 5651 5674 5690 5702
5767 5759 5752 5743 5734 5723 5712 5700 5687 5679 5673 5667 5659 5652 5647 5643 5639 5634 5631 5628 5623 5620 5616 5612 5609 5606 5604 5603 5601 5600 5600 5598 5595 5591 5586 5589 5588 5592 5602 5619 5631 5648 5666 5680 5692
5762 5754 5747 5739 5729 5718 5707 5698 5684 5677 5671 5663 5657 5651 5644 5640 5637 5632 5629 5625 5620 5616 5612 5607 5604 5600 5599 5597 5597 5595 5595 5593 5590 5588 5585 5585 5583 5586 5593 5612 5629 5637 5653 5669 5682
5757 5749 5741 5733 5724 5713 5703 5689 5683 5673 5666 5661 5654 5649 5644 5638 5632 5629 5625 5621 5618 5611 5608 5602 5599 5596 5593 5591 5591 5590 5588 5589 5585 5583 5580 5581 5580 5583 5589 5599 5619 5631 5643 5655 5671
5751 5743 5736 5728 5719 5709 5698 5690 5679 5668 5661 5652 5646 5642 5638 5634 5631 5626 5622 5618 5612 5607 5601 5597 5591 5589 5586 5584 5584 5584 5584 5583 5581 5579 5577 5577 5577 5582 5586 5594 5610 5623 5632 5649 5670
5745 5736 5729 5722 5714 5702 5693 5684 5673 5663 5655 5646 5637 5635 5632 5629 5626 5622 5617 5613 5607 5601 5596 5590 5585 5584 5579 5578 5578 5578 5576 5577 5577 5577 5573 5572 5574 5574 5583 5596 5604 5615 5631 5647 5662
5740 5734 5724 5716 5708 5698 5690 5679 5669 5659 5651 5644 5636 5632 5629 5624 5624 5618 5613 5606 5600 5595 5590 5584 5578 5576 5573 5570 5570 5571 5571 5571 5571 5574 5571 5570 5570 5572 5576 5590 5603 5615 5629 5644 5657
5733 5728 5723 5713 5705 5696 5685 5675 5666 5657 5648 5641 5636 5631 5627 5622 5620 5614 5609 5602 5594 5587 5582 5578 5574 5569 5568 5568 5566 5565 5566 5566 5567 5567 5567 5565 5569 5568 5578 5588 5599 5613 5627 5641 5656
5728 5721 5714 5706 5699 5691 5681 5671 5662 5654 5647 5640 5634 5629 5626 5622 5615 5609 5603 5596 5589 5583 5578 5572 5571 5566 5564 5562 5561 5560 5560 5561 5562 5562 5566 5563 5564 5566 5576 5573 5590 5614 5624 5637 5651
5723 5716 5709 5703 5695 5686 5678 5669 5659 5652 5646 5639 5634 5626 5620 5617 5615 5607 5599 5593 5587 5582 5577 5572 5566 5562 5558 5555 5553 5553 5554 5555 5557 5559 5558 5561 5561 5563 5574 5569 5582 5599 5618 5632 5649
5719 5713 5705 5699 5690 5683 5674 5665 5656 5648 5642 5637 5631 5624 5619 5614 5606 5601 5596 5590 5585 5581 5575 5570 5564 5559 5555 5551 5549 5548 5548 5549 5551 5552 5554 5556 5556 5562 5571 5572 5584 5597 5613 5632 5634
5715 5709 5700 5694 5686 5679 5671 5662 5654 5646 5638 5632 5626 5620 5615 5610 5605 5598 5593 5588 5583 5578 5572 5567 5563 5558 5554 5550 5548 5547 5545 5546 5547 5548 5550 5553 5556 5556 5568 5575 5592 5606 5604 5619 5643